When you browse on this site, cookies collect data to enhance your experience and personalize the content and advertising you see.
Visit our Privacy Policy to learn more. By continuing to use the site, you agree to this use of cookies and data.
  • In Czech Republic
  • List of Countries
  • For 7 days
  • Water Temperature
  • Satellite Maps
  • Weather Map
  • Weather Widgets
  • user-avatar
    Login

    Hourly Weather Titovka

    Today, 23 May, Thursday

    Time Temperature Precipitation Wind Pressure Humidity
    00:00 +15°C° 0 mm 1 mps 744 mmHg 74%
    01:00 +15°C° 0 mm 1 mps 744 mmHg 77%
    02:00 +14°C° 0 mm 1 mps 744 mmHg 79%
    03:00 +14°C° 0 mm 1 mps 744 mmHg 80%
    04:00 +14°C° 0 mm 1 mps 744 mmHg 81%
    05:00 +14°C° 0 mm 1 mps 744 mmHg 82%
    06:00 +16°C° 0 mm 1 mps 744 mmHg 75%
    07:00 +20°C° 0 mm 1 mps 744 mmHg 67%
    08:00 +22°C° 0 mm 1 mps 744 mmHg 60%
    09:00 +23°C° 0 mm 1 mps 744 mmHg 55%
    10:00 +24°C° 0 mm 1 mps 744 mmHg 49%
    11:00 +25°C° 0 mm 2 mps 744 mmHg 44%
    12:00 +26°C° 0 mm 2 mps 744 mmHg 44%
    13:00 +26°C° 0 mm 2 mps 744 mmHg 45%
    14:00 +26°C° 0 mm 2 mps 744 mmHg 45%
    15:00 +26°C° 0 mm 2 mps 744 mmHg 47%
    16:00 +25°C° 0 mm 2 mps 743 mmHg 49%
    17:00 +25°C° 0 mm 2 mps 743 mmHg 51%
    18:00 +23°C° 0 mm 2 mps 743 mmHg 58%
    19:00 +21°C° 0 mm 2 mps 743 mmHg 64%
    20:00 +20°C° 0 mm 1 mps 744 mmHg 70%
    21:00 +19°C° 0 mm 1 mps 744 mmHg 73%
    22:00 +17°C° 0 mm 2 mps 744 mmHg 75%
    23:00 +16°C° 0 mm 2 mps 744 mmHg 78%

    Tomorrow, 24 May, Friday

    Time Temperature Precipitation Wind Pressure Humidity
    00:00 +16°C° 0 mm 1 mps 744 mmHg 81%
    01:00 +16°C° 0 mm 1 mps 744 mmHg 83%
    02:00 +15°C° 0 mm 1 mps 744 mmHg 86%
    03:00 +15°C° 0 mm 1 mps 744 mmHg 87%
    04:00 +15°C° 0 mm 1 mps 744 mmHg 87%
    05:00 +15°C° 0 mm 1 mps 744 mmHg 87%
    06:00 +18°C° 0 mm 1 mps 744 mmHg 80%
    07:00 +20°C° 0 mm 1 mps 744 mmHg 72%
    08:00 +22°C° 0 mm 1 mps 744 mmHg 65%
    09:00 +24°C° 0 mm 1 mps 744 mmHg 59%
    10:00 +25°C° 0 mm 1 mps 744 mmHg 52%
    11:00 +27°C° 0 mm 1 mps 744 mmHg 46%
    12:00 +27°C° 0 mm 1 mps 744 mmHg 47%
    13:00 +26°C° 0 mm 1 mps 744 mmHg 48%
    14:00 +26°C° 0 mm 1 mps 744 mmHg 50%
    15:00 +26°C° 0.2 mm 1 mps 743 mmHg 53%
    16:00 +25°C° 0.2 mm 1 mps 743 mmHg 56%
    17:00 +25°C° 0.2 mm 2 mps 743 mmHg 60%
    18:00 +23°C° 0.4 mm 2 mps 743 mmHg 67%
    19:00 +21°C° 0.4 mm 1 mps 743 mmHg 75%
    20:00 +20°C° 0.4 mm 1 mps 743 mmHg 82%
    21:00 +19°C° 0.1 mm 1 mps 743 mmHg 84%
    22:00 +18°C° 0.1 mm 1 mps 743 mmHg 87%
    23:00 +18°C° 0.1 mm 1 mps 743 mmHg 89%

    Day after tomorrow, 25 May, Saturday

    Time Temperature Precipitation Wind Pressure Humidity
    00:00 +16°C° 0.6 mm 1 mps 743 mmHg 90%
    01:00 +16°C° 0.6 mm 1 mps 742 mmHg 92%
    02:00 +15°C° 0.6 mm 0 mps 742 mmHg 93%
    03:00 +16°C° 0 mm 1 mps 742 mmHg 93%
    04:00 +16°C° 0 mm 1 mps 742 mmHg 92%
    05:00 +16°C° 0 mm 1 mps 742 mmHg 92%
    06:00 +18°C° 0.1 mm 1 mps 742 mmHg 90%
    07:00 +19°C° 0.1 mm 1 mps 742 mmHg 87%
    08:00 +20°C° 0.1 mm 1 mps 742 mmHg 84%
    09:00 +21°C° 0.9 mm 1 mps 742 mmHg 78%
    10:00 +22°C° 0.9 mm 1 mps 742 mmHg 73%
    11:00 +23°C° 0.9 mm 2 mps 742 mmHg 67%
    12:00 +23°C° 0.8 mm 2 mps 741 mmHg 70%
    13:00 +22°C° 0.8 mm 3 mps 741 mmHg 74%
    14:00 +21°C° 0.8 mm 3 mps 741 mmHg 77%
    15:00 +21°C° 0.3 mm 3 mps 741 mmHg 75%
    16:00 +21°C° 0.3 mm 3 mps 741 mmHg 74%
    17:00 +21°C° 0.3 mm 3 mps 741 mmHg 73%
    18:00 +20°C° 0.1 mm 3 mps 741 mmHg 75%
    19:00 +19°C° 0.1 mm 3 mps 741 mmHg 78%
    20:00 +17°C° 0.1 mm 2 mps 741 mmHg 81%
    21:00 +16°C° 0 mm 3 mps 741 mmHg 83%
    22:00 +14°C° 0 mm 3 mps 741 mmHg 85%
    23:00 +13°C° 0 mm 3 mps 741 mmHg 87%

    26 May, Sunday

    Time Temperature Precipitation Wind Pressure Humidity
    00:00 +13°C° 0 mm 3 mps 742 mmHg 89%
    01:00 +12°C° 0 mm 3 mps 742 mmHg 92%
    02:00 +11°C° 0 mm 3 mps 742 mmHg 95%
    03:00 +11°C° 0 mm 3 mps 742 mmHg 94%
    04:00 +10°C° 0 mm 2 mps 742 mmHg 94%
    05:00 +10°C° 0 mm 2 mps 743 mmHg 93%
    06:00 +12°C° 0 mm 2 mps 743 mmHg 85%
    07:00 +13°C° 0 mm 3 mps 743 mmHg 76%
    08:00 +14°C° 0 mm 3 mps 743 mmHg 68%
    09:00 +17°C° 0 mm 4 mps 743 mmHg 63%
    10:00 +18°C° 0 mm 4 mps 742 mmHg 57%
    11:00 +19°C° 0 mm 4 mps 742 mmHg 52%
    12:00 +20°C° 0 mm 5 mps 742 mmHg 52%
    13:00 +20°C° 0 mm 5 mps 741 mmHg 51%
    14:00 +20°C° 0 mm 5 mps 741 mmHg 51%
    15:00 +20°C° 0.2 mm 5 mps 741 mmHg 57%
    16:00 +19°C° 0.2 mm 6 mps 741 mmHg 63%
    17:00 +17°C° 0.2 mm 6 mps 741 mmHg 69%
    18:00 +15°C° 0.2 mm 5 mps 741 mmHg 75%
    19:00 +13°C° 0.2 mm 5 mps 741 mmHg 81%
    20:00 +11°C° 0.2 mm 4 mps 741 mmHg 87%
    21:00 +10°C° 0.1 mm 4 mps 741 mmHg 89%
    22:00 +8°C° 0.1 mm 4 mps 741 mmHg 90%
    23:00 +8°C° 0.1 mm 4 mps 742 mmHg 92%

    27 May, Monday

    Time Temperature Precipitation Wind Pressure Humidity
    00:00 +7°C° 0 mm 4 mps 742 mmHg 92%
    01:00 +7°C° 0 mm 4 mps 742 mmHg 91%
    02:00 +7°C° 0 mm 5 mps 742 mmHg 91%
    03:00 +6°C° 0 mm 5 mps 743 mmHg 91%
    04:00 +6°C° 0 mm 5 mps 743 mmHg 92%
    05:00 +6°C° 0 mm 4 mps 743 mmHg 92%
    06:00 +7°C° 0 mm 5 mps 744 mmHg 86%
    07:00 +8°C° 0 mm 5 mps 744 mmHg 80%
    08:00 +10°C° 0 mm 6 mps 745 mmHg 73%
    09:00 +10°C° 0 mm 6 mps 745 mmHg 71%
    10:00 +12°C° 0 mm 5 mps 745 mmHg 68%
    11:00 +13°C° 0 mm 5 mps 746 mmHg 66%
    12:00 +14°C° 0 mm 5 mps 746 mmHg 62%
    13:00 +15°C° 0 mm 5 mps 746 mmHg 58%
    14:00 +18°C° 0 mm 4 mps 746 mmHg 54%
    15:00 +18°C° 0 mm 4 mps 746 mmHg 56%
    16:00 +18°C° 0 mm 4 mps 746 mmHg 58%
    17:00 +18°C° 0 mm 4 mps 746 mmHg 59%
    18:00 +16°C° 0 mm 3 mps 747 mmHg 66%
    19:00 +15°C° 0 mm 2 mps 747 mmHg 74%
    20:00 +13°C° 0 mm 1 mps 747 mmHg 81%
    21:00 +13°C° 0 mm 2 mps 747 mmHg 83%
    22:00 +12°C° 0 mm 2 mps 747 mmHg 86%
    23:00 +10°C° 0 mm 2 mps 747 mmHg 89%

    28 May, Tuesday

    Time Temperature Precipitation Wind Pressure Humidity
    00:00 +10°C° 0 mm 2 mps 747 mmHg 89%
    01:00 +10°C° 0 mm 2 mps 748 mmHg 90%
    02:00 +10°C° 0 mm 2 mps 748 mmHg 90%
    03:00 +10°C° 0 mm 2 mps 747 mmHg 87%
    04:00 +11°C° 0 mm 3 mps 747 mmHg 84%
    05:00 +11°C° 0 mm 3 mps 747 mmHg 81%
    06:00 +13°C° 0 mm 3 mps 747 mmHg 77%
    07:00 +15°C° 0 mm 4 mps 747 mmHg 73%
    08:00 +16°C° 0 mm 5 mps 746 mmHg 69%
    09:00 +16°C° 2.7 mm 5 mps 746 mmHg 77%
    10:00 +15°C° 2.7 mm 5 mps 745 mmHg 85%
    11:00 +15°C° 2.7 mm 5 mps 745 mmHg 92%
    12:00 +15°C° 4.1 mm 4 mps 744 mmHg 93%
    13:00 +15°C° 4.1 mm 4 mps 744 mmHg 93%
    14:00 +15°C° 4.1 mm 4 mps 743 mmHg 93%
    15:00 +19°C° 0.2 mm 4 mps 743 mmHg 87%
    16:00 +21°C° 0.2 mm 4 mps 743 mmHg 82%
    17:00 +23°C° 0.2 mm 5 mps 742 mmHg 76%
    18:00 +22°C° 1.9 mm 4 mps 742 mmHg 80%
    19:00 +20°C° 1.9 mm 4 mps 742 mmHg 85%
    20:00 +19°C° 1.9 mm 4 mps 742 mmHg 90%
    21:00 +18°C° 0.1 mm 4 mps 742 mmHg 91%
    22:00 +18°C° 0.1 mm 3 mps 742 mmHg 92%
    23:00 +18°C° 0.1 mm 3 mps 742 mmHg 94%
    Show more